This demonstration page uses our WeatherBlox Daily Observations layout. Learn more.

Left ArrowRight Arrow

Hourly Observations for November 29, 2022

Temp ( °F °C ) Dew Point ( °F °C ) Humidity (%) Winds ( mph kmh ) Pressure ( in mb ) Visibility ( mi km ) Precip ( " mm )
12:52 am 00:52 Clear 49 9.4 41 5 74 74 SSE 18 30 29.70 1006 10 16 0.00 0.00
1:52 am 01:52 Clear 48 8.9 41 5 76 76 SSE 15 24 29.68 1005 10 16 0.00 0.00
2:52 am 02:52 Clear 50 10 42 5.6 74 74 SSE 18 30 29.66 1004 10 16 0.00 0.00
3:52 am 03:52 Clear 50 10 43 6.1 77 77 SSE 18 30 29.63 1003 10 16 0.00 0.00
4:52 am 04:52 Clear 50 10 44 6.7 80 80 SSE 17 28 29.62 1003 10 16 0.00 0.00
5:52 am 05:52 Mostly Clear 51 10.6 44 6.7 77 77 SSE 17 28 29.60 1002 10 16 0.00 0.00
6:52 am 06:52 Mostly Cloudy 52 11.1 46 7.8 80 80 SSE 21 33 29.58 1002 10 16 0.00 0.00
7:16 am 07:16 Mostly Cloudy 53 11.7 46 7.8 77 77 SSE 18 30 29.58 1002 10 16 0.00 0.00
7:52 am 07:52 Partly Cloudy 53 11.7 47 8.3 80 80 S 17 28 29.57 1002 10 16 0.00 0.00
8:52 am 08:52 Mostly Cloudy 57 13.9 50 10 77 77 S 18 30 29.59 1002 10 16 0.00 0.00
9:52 am 09:52 Mostly Cloudy 62 16.7 52 11.1 70 70 SSW 20 31 29.57 1001 10 16 0.00 0.00
10:52 am 10:52 Cloudy 64 17.8 52 11.1 65 65 SW 28 44 29.57 1001 10 16 0.00 0.00
11:52 am 11:52 Mostly Cloudy 66 18.9 51 10.6 59 59 SW 29 46 29.54 1000 10 16 0.00 0.00
12:52 pm 12:52 Mostly Sunny 68 20 50 10 53 53 SW 26 43 29.52 1000 10 16 0.00 0.00
1:52 pm 13:52 Sunny 70 21.1 46 7.8 42 42 WSW 28 44 29.52 1000 10 16 0.00 0.00
2:52 pm 14:52 Mostly Sunny 70 21.1 43 6.1 38 38 WSW 21 33 29.54 1001 10 16 0.00 0.00
3:52 pm 15:52 Sunny 61 16.1 43 6.1 51 51 WNW 18 30 29.60 1002 10 16 0.00 0.00
4:52 pm 16:52 Sunny 51 10.6 40 4.4 65 65 WNW 17 28 29.68 1005 10 16 0.00 0.00
5:52 pm 17:52 Clear 42 5.6 34 1.1 73 73 WNW 16 26 29.77 1008 10 16 0.00 0.00
6:18 pm 18:18 Mostly Cloudy 40 4.4 33 0.6 76 76 WNW 14 22 29.83 1010 10 16 0.00 0.00
6:52 pm 18:52 Cloudy 39 3.9 32 0 76 76 NW 18 30 29.84 1010 10 16 0.00 0.00
7:52 pm 19:52 Cloudy 35 1.7 29 -1.7 78 78 NNW 23 37 29.89 1012 10 16 0.00 0.00
8:05 pm 20:05 Cloudy 35 1.7 29 -1.7 78 78 NW 24 39 29.94 1014 10 16 0.00 0.00
8:29 pm 20:29 Cloudy 35 1.7 28 -2.2 75 75 NW 16 26 29.97 1015 10 16 0.00 0.00
8:52 pm 20:52 Cloudy 35 1.7 28 -2.2 75 75 NW 20 31 29.91 1013 10 16 0.00 0.00
9:52 pm 21:52 Cloudy 33 0.6 25 -3.9 72 72 NNW 21 33 30.00 1016 10 16 0.00 0.00
10:52 pm 22:52 Cloudy 32 0 23 -5 69 69 NW 21 33 30.05 1018 10 16 0.00 0.00
11:52 pm 23:52 Cloudy with Light Snow 28 -2.2 23 -5 81 81 NW 18 30 30.08 1019 3 4 0.01 0.13

Powered by AerisWeather